Tracking 27111 objects as of 29-Mar-2023
HD Live streaming from Space Station
objects crossing your sky now

FLOCK 4Y 32

Track FLOCK 4Y 32 now!
10-day predictions
FLOCK 4Y 32 is classified as:


NORAD ID: 55021
Int'l Code: 2023-001N
Perigee: 519.0 km
Apogee: 532.1 km
Inclination: 97.5 °
Period: 95.0 minutes
Semi major axis: 6896 km
RCS: Unknown
Launch date: January 3, 2023
Source: United States (US)
Launch site: AIR FORCE EASTERN TEST RANGE (AFETR)
Your satellite tracking list
Your tracking list is empty




NASA's NSSDC Master Catalog

Two Line Element Set (TLE):
1 55021U 23001N   23087.16480174  .00032428  00000-0  16910-2 0  9998
2 55021  97.4863 147.9163 0009490 288.9642  71.0562 15.15852134 12799
Source of the keplerian elements: AFSPC